Broomfield, CO

9:00 PM MST on November 17, 2017 (GMT -0700)
Jeffco

Weather History for KBJC - August, 2013

Change the Weather History Date:

Saturday, August 3, 2013

  Actual Average Record
Temperature  
Mean Temperature 74 °F -  
Max Temperature 89 °F 84 °F 95 °F (2008)
Min Temperature 60 °F 60 °F 48 °F (1986)
Cooling Degree Days 10    
Growing Degree Days 24 (Base 50)    
Moisture  
Dew Point 53 °F    
Average Humidity 57    
Maximum Humidity 88    
Minimum Humidity 18    
Precipitation  
Precipitation 0.00 in - - ()
Sea Level Pressure  
Sea Level Pressure 30.20 in    
Wind  
Wind Speed 7 mph (NW)    
Max Wind Speed 24 mph    
Max Gust Speed 31 mph    
Visibility 10 miles    
Events Rain , Thunderstorm    
Averages and records for this station are not official NWS values.
T = Trace of Precipitation, MM = Missing Value Source: NWS Daily Summary

Daily Weather History Graph

Daily Weather History Graph

Search for Another Location

Airport or City:

Trip Planner

Search our weather history database for the weather conditions in past years. The results will help you decide how hot, cold, wet, or windy it might be!

Date:

Astronomy

Aug. 03, 2013 Rise Set
Actual Time 6:01 AM MDT 8:11 PM MDT
Civil Twilight 5:31 AM MDT 8:41 PM MDT
Nautical Twilight 4:54 AM MDT 9:18 PM MDT
Astronomical Twilight 4:13 AM MDT 9:58 PM MDT
Moon 3:12 AM MDT (8/3) 5:55 PM MDT (8/3)
Length of Visible Light 15h 10m
Length of Day
14h 10m
Waning Crescent, 9% of the Moon is Illuminated
Aug 3
Waning Crescent
Aug 6
New
Aug 14
First Quarter
Aug 20
Full
Aug 28
Last Quarter

Hourly Weather History & Observations

Time (MDT) Temp. Heat Index Dew Point Humidity Pressure Visibility Wind Dir Wind Speed Gust Speed Precip Events Conditions
12:16 AM 71.6 °F - 44.6 °F 38% 30.15 in 10.0 mi Calm Calm - N/A   Clear
12:36 AM 71.6 °F - 46.4 °F 41% 30.15 in 10.0 mi West 3.5 mph - N/A   Clear
12:56 AM 69.8 °F - 46.4 °F 43% 30.15 in 10.0 mi WNW 3.5 mph - N/A   Clear
1:16 AM 71.6 °F - 53.6 °F 53% 30.15 in 10.0 mi NW 5.8 mph - N/A   Clear
1:36 AM 71.6 °F - 53.6 °F 53% 30.15 in 10.0 mi NW 9.2 mph - N/A   Clear
1:56 AM 69.8 °F - 53.6 °F 56% 30.14 in 10.0 mi WNW 15.0 mph - N/A   Clear
2:16 AM 69.8 °F - 53.6 °F 56% 30.14 in 10.0 mi WNW 13.8 mph - N/A   Clear
2:35 AM 69.8 °F - 53.6 °F 56% 30.14 in 10.0 mi NNW 8.1 mph - N/A   Clear
2:56 AM 68.0 °F - 53.6 °F 60% 30.15 in 10.0 mi Calm Calm - N/A   Clear
3:16 AM 68.0 °F - 51.8 °F 56% 30.14 in 10.0 mi NW 5.8 mph - N/A   Clear
3:36 AM 68.0 °F - 53.6 °F 60% 30.13 in 10.0 mi NW 11.5 mph - N/A   Clear
3:56 AM 68.0 °F - 53.6 °F 60% 30.15 in 10.0 mi Calm Calm - N/A   Clear
4:15 AM 66.2 °F - 55.4 °F 68% 30.14 in 10.0 mi NNW 8.1 mph - N/A   Clear
4:35 AM 68.0 °F - 55.4 °F 64% 30.15 in 10.0 mi Calm Calm - N/A   Clear
4:56 AM 64.4 °F - 55.4 °F 73% 30.15 in 10.0 mi WNW 9.2 mph - N/A   Clear
5:16 AM 64.4 °F - 55.4 °F 73% 30.15 in 10.0 mi West 6.9 mph - N/A   Clear
5:36 AM 64.4 °F - 55.4 °F 73% 30.16 in 10.0 mi WNW 5.8 mph - N/A   Clear
5:47 AM 64.4 °F - 57.2 °F 77% 30.15 in 30.0 mi WNW 5.8 mph - N/A   Mostly Cloudy
5:55 AM 64.4 °F - 55.4 °F 73% 30.16 in 10.0 mi WNW 5.8 mph - N/A   Clear
6:46 AM 66.2 °F - 55.4 °F 68% 30.18 in 45.0 mi NW 5.8 mph - N/A   Overcast
7:45 AM 68.0 °F - 55.4 °F 64% 30.19 in 30.0 mi Variable 3.5 mph - N/A   Mostly Cloudy
8:48 AM 71.6 °F - 55.4 °F 57% 30.20 in 30.0 mi Variable 4.6 mph - N/A   Scattered Clouds
9:56 AM 77.0 °F - 55.4 °F 47% 30.20 in 30.0 mi Variable 4.6 mph - N/A   Scattered Clouds
10:55 AM 80.6 °F 80.3 °F 53.6 °F 39% 30.20 in 30.0 mi NE 5.8 mph - N/A   Scattered Clouds
11:50 AM 82.4 °F - 50.0 °F 32% 30.19 in 30.0 mi East 8.1 mph - N/A   Scattered Clouds
12:50 PM 86.0 °F - 46.4 °F 25% 30.18 in 30.0 mi NE 8.1 mph - N/A   Scattered Clouds
1:45 PM 89.6 °F - 41.0 °F 18% 30.18 in 30.0 mi NE 8.1 mph - N/A   Mostly Cloudy
2:47 PM 86.0 °F - 42.8 °F 22% 30.15 in 60.0 mi West 12.7 mph - N/A   Mostly Cloudy
3:47 PM 86.0 °F - 37.4 °F 18% 30.15 in 60.0 mi West 11.5 mph - N/A   Mostly Cloudy
4:20 PM 78.8 °F - 55.4 °F 44% 30.15 in 40.0 mi ENE 12.7 mph 28.8 mph N/A   Mostly Cloudy
4:50 PM 80.6 °F 80.5 °F 55.4 °F 42% 30.15 in 4.0 mi ENE 18.4 mph 25.3 mph N/A   Mostly Cloudy
5:20 PM 75.2 °F - 55.4 °F 50% 30.15 in 15.0 mi North 24.2 mph 31.1 mph N/A   Mostly Cloudy
5:51 PM 69.8 °F - 53.6 °F 56% 30.25 in 10.0 mi North 17.3 mph 25.3 mph N/A   Overcast
6:19 PM 66.2 °F - 57.2 °F 73% 30.28 in 2.0 mi NW 18.4 mph 29.9 mph N/A Rain , Thunderstorm Heavy Thunderstorms and Rain
6:47 PM 60.8 °F - 57.2 °F 88% 30.29 in 2.0 mi NE 19.6 mph 25.3 mph N/A Rain , Thunderstorm Heavy Thunderstorms and Rain
7:10 PM 62.6 °F - 57.2 °F 82% 30.31 in 15.0 mi NNE 6.9 mph - N/A Rain Light Rain
7:47 PM 62.6 °F - 57.2 °F 82% 30.35 in 30.0 mi NE 4.6 mph - N/A   Mostly Cloudy
8:47 PM 62.6 °F - 55.4 °F 77% 30.36 in 25.0 mi South 11.5 mph - N/A   Mostly Cloudy
9:47 PM 62.6 °F - 55.4 °F 77% 30.36 in 25.0 mi SSW 11.5 mph - N/A   Mostly Cloudy
11:16 PM 62.6 °F - 50.0 °F 63% 30.34 in 10.0 mi SSW 11.5 mph - N/A   Clear
11:35 PM 64.4 °F - 50.0 °F 59% 30.32 in 10.0 mi SSW 10.4 mph 21.9 mph N/A   Clear
11:56 PM 64.4 °F - 50.0 °F 59% 30.30 in 10.0 mi SSW 11.5 mph - N/A   Clear